Jackpot

Texas Poker Multi Jackpot System

Kini Telah hadir Jackpot SUPER ROYAL FLUSH

Kini Telah hadir Jackpot 2000 (khusus table VIP keatas).

Ikutilah global jackpot yang tersedia di system kami, dengan system jackpot terbaru dan pertama di indonesia, anda dapat membeli jackpot dengan harga 100 rupiah saja dan menangkan hadiahnya hingga puluhan juta rupiah.

Jackpot bukanlah suatu keharusan untuk dibeli, namun kami memberikan suatu fitur tambahan untuk member tercinta dari www.pokerbintang.space.

Terdapat tiga pilihan harga jackpot yang bisa anda beli yaitu :100,500,1000 dan 2000(khusus table VIP Keatas) rupiah.

Hadiah dari Multi jackpot system www.pokerbintang.space

  1. full house x 10 harga jackpot yang anda beli.
      (contoh:anda membeli 1000 maka:1000 X10 = 10.000)
  2. four of kind x 250 harga jackpot yang anda beli
      (contoh:anda membeli 1000 maka:1000 X250 = 250.000)
  3. Straight flush x 1200
      (contoh:anda membeli 1000 maka:1000 X1200 = 1.200.000)
  4. Royal flush x 10000 harga jackpot yang anda beli
      (contoh:anda membeli 1000 maka:1000 X10000 = 10.000.000)
  5. SUPER ROYAL FLUSH x 30000 harga jackpot yang anda beli
      (contoh:anda membeli 1000 maka:1000 X30000 = 30.000.000)

Kondisi kartu

  1. full house adalah kondisi kartu dimana kartu anda dan kartu tengah dengan total 7 kartu bisa mendapatkan nilai 5 kartu dengan kombinasi 1 tris(three of kind) dan 1 pair, contoh 3 kartu 10 dan 2 kartu 5
  2. Four of kind adalah kondisi kartu dimana kartu anda dan kartu tengah dengan total 7 kartu bisa mendapatkan nilai 5 kartu dengan kombinasi 4 kartu yang sama jumlah dan 1 kartu apapun juga contoh anda mendapatkan 4 buah kartu angka 3 dan 1 kartu apapun.
  3. Staright flush adalah kondisi kartu dimana kartu anda dan kartu tengah dengan total 7 kartu bisa mendapatkan nilai 5 kartu dengan kombinasi seri / staright dengan kembang yang sama contoh : urutan kartu dari angka 5, 6, 7, 8 , 9 10 dengan kembang yg sama misalnya as hati
  4. Royal flush adalah kondisi kartu dimana kartu anda dan kartu tengah dengan total 7 kartu bisa mendapatkan nilai 5 kartu dengan kombinasi seri / staright dengan kembang yang sama tetapi kartu tersebut haruslah dimulai dari 10. contoh 10, Queen, Jack, King dan aces dengan kembang yang sama
  5. Super Royal flush adalah kondisi kartu dimana Kedua kartu anda digabung dengan 3 kartu pertama meja haruslah royal flush. contoh kartu anda 10,Queen kembang sama dan 3 kartu pertama meja adalah Jack, King dan aces dengan kembang yang sama

Demikian adalah penjelasan dari Multi Jackpot www.pokerbintang.space terima kasih dan selamat bermain salam hoki dari kami

Texas Poker Jackpot Winner

TOP SUPER ROYAL FLUSH
No.TanggalNamaPriceWin
117/07 06:09SADEWANGSuper Royal flush15,000,000
217/07 05:37SXENRESuper Royal flush3,000,000
317/07 02:43JOZZZ99Super Royal flush6,000,000
417/07 01:45SOSIM8899Super Royal flush15,000,000
516/07 23:46AA7C7D8ESuper Royal flush15,000,000
TOP ROYAL FLUSH
No.TanggalNamaPriceWin
117/07 07:12WAREG1212Royal flush2,000,000
217/07 06:36BUNDAKEKEYRoyal flush5,000,000
317/07 06:18LAHTAZANJRRoyal flush2,000,000
417/07 05:57SABBAR77Royal flush5,000,000
517/07 05:48M4NC1TORoyal flush2,000,000
TOP STRAIGHT FLUSH
No.TanggalNamaPriceWin
117/07 07:15ASQQWWStraight Flush240,000
217/07 07:13JIHI05Straight Flush240,000
317/07 07:11NGAJIRANStraight Flush120,000
417/07 07:02WQOIEWQKP6Straight Flush1,200,000
517/07 07:01NINUNENOStraight Flush240,000
LATEST JACKPOT
No.TanggalNamaPriceWin
117/07 07:16SNI57664Full House2,000
217/07 07:16RADIATOR88Full House2,000
317/07 07:16MANDAGI_11Full House5,000
417/07 07:16TINOEK051Full House5,000
517/07 07:16XXBAS33XXFull House5,000
617/07 07:16USMO23O1L4Full House5,000
717/07 07:16UBAS12345Full House5,000
817/07 07:16NUZULAN88Full House10,000
917/07 07:16DIDIK119Full House2,000
1017/07 07:16DEWACOPETFour Of A Kind125,000
1117/07 07:16TYASBOWOFull House5,000
1217/07 07:16PELOP91Full House5,000
1317/07 07:16PASUPASU26Full House10,000
1417/07 07:16AYUKKAUFull House2,000
1517/07 07:16EGA0708Full House1,000
1617/07 07:16BANGNO69Full House10,000
1717/07 07:16BDET3P26Full House2,000
1817/07 07:16FLOURESENTFull House2,000
1917/07 07:16CINGARISFull House1,000
2017/07 07:16NANTUL4NGFull House10,000
2117/07 07:15YOIMENKUFull House10,000
2217/07 07:15AZ4NNFull House5,000
2317/07 07:15ROMARIOO99Full House10,000
2417/07 07:15TEMPEKLAHFull House2,000
2517/07 07:15BADUTLI4RFull House10,000
2617/07 07:15RABBIT89Full House20,000
2717/07 07:15MUHAKAAFull House10,000
2817/07 07:15RATURAYA08Full House10,000
2917/07 07:15DENI0087Full House5,000
3017/07 07:15VOLUTION79Full House1,000
3117/07 07:15BU3XS77Full House5,000
3217/07 07:15F0C4E72FFull House2,000
3317/07 07:15ARISSIO7Full House10,000
3417/07 07:15JONHESFull House5,000
3517/07 07:15UWAIS23Full House5,000
3617/07 07:15JABARRRRRRFull House5,000
3717/07 07:15ZOAM27Full House5,000
3817/07 07:15NAGA8881IFull House500
3917/07 07:15LUCCKYEFull House10,000
4017/07 07:15SERINGRYLFull House1,000
4117/07 07:15HERMAN4693Full House20,000
4217/07 07:15ASQQWWStraight Flush240,000
4317/07 07:15DIYADIFour Of A Kind25,000
4417/07 07:15C3PUK959Full House10,000
4517/07 07:15BABENGGAAFull House2,000
4617/07 07:15SNI57664Full House2,000
4717/07 07:15A0B3E558Full House20,000
4817/07 07:15KOBLENG11Full House2,000
4917/07 07:15SABODO07Full House2,000
5017/07 07:15USMO23O1L4Full House5,000

Domino Multi Jackpot System

Ikutilah global jackpot yang tersedia di system kami, dengan system jackpot terbaru dan pertama di indonesia, anda dapat membeli jackpot dengan harga 100 rupiah saja dan menangkan hadiahnya hingga puluhan juta rupiah.

Jackpot bukanlah suatu keharusan untuk dibeli, namun kami memberikan suatu fitur tambahan untuk member tercinta dari www.pokerbintang.space.

Terdapat tiga pilihan harga jackpot yang bisa anda beli yaitu :100,500 dan 1000 rupiah.

Hadiah dari Multi jackpot system www.pokerbintang.space

  1. Murni Kecil x 50 harga jackpot yang anda beli.
      (contoh:anda membeli 1000 maka:1000 X 50 = 50.000)
  2. Murni Besar x 50 harga jackpot yang anda beli
      (contoh:anda membeli 1000 maka:1000 X 50 = 50.000)
  3. BALAK x 100 harga jackpot yang anda beli
      (contoh:anda membeli 1000 maka:1000 X 100 = 100.000)
  4. ENAM DEWA x 6666 harga jackpot yang anda beli
      (contoh:anda membeli 1000 maka:1000 X 6666 = 6.666.000)

Demikian adalah penjelasan dari Multi Jackpot www.pokerbintang.space terima kasih dan selamat bermain salam hoki dari kami

Domino Jackpot Winner

TOP ENAM DEWA
No.TanggalNamaPriceWin
117/07 03:44CANGKER21murni enam3,333,000
217/07 03:01KAYUU615murni enam6,666,000
317/07 02:46BUSET41murni enam6,666,000
417/07 01:53BALANDO87murni enam3,333,000
517/07 01:12CHALISA99murni enam6,666,000
TOP BALAK
No.TanggalNamaPriceWin
117/07 07:16VHY86balak100,000
217/07 07:15TASY4QQbalak10,000
317/07 07:13DEVII1999balak10,000
417/07 07:09WSAOLLEV8Gbalak10,000
517/07 07:07MAKKARAENGbalak100,000
LATEST JACKPOT
No.TanggalNamaPriceWin
117/07 07:16VHY86balak100,000
217/07 07:16DOEL3071murni kecil25,000
317/07 07:15ZAFRAN69murni besar25,000
417/07 07:15TASY4QQbalak10,000
517/07 07:14J00K33R87murni kecil50,000
617/07 07:13DEVII1999balak10,000
717/07 07:12ENASANmurni kecil50,000
817/07 07:11GOD_LOVERSmurni kecil25,000
917/07 07:10BADEN6666murni kecil50,000
1017/07 07:10RASKAL90murni kecil50,000
1117/07 07:09FIKERR1MP3murni besar50,000
1217/07 07:09WSAOLLEV8Gbalak10,000
1317/07 07:08HOKIHELMImurni besar50,000
1417/07 07:08LUCKY2014murni besar50,000
1517/07 07:08RABUDmurni kecil25,000
1617/07 07:08QQGELOmurni kecil25,000
1717/07 07:07T1T4JOmurni kecil25,000
1817/07 07:07FEI07lucky9925,000
1917/07 07:07MAKKARAENGbalak100,000
2017/07 07:07G8YBW0XHB1murni kecil50,000
2117/07 07:05A33ADIN49balak50,000
2217/07 07:05BAHTIAR87murni kecil25,000
2317/07 07:05AKBARBOmurni kecil25,000
2417/07 07:05SIDE72murni besar25,000
2517/07 07:04HERI77ANDAmurni besar50,000
2617/07 07:04BINUANG66murni besar25,000
2717/07 07:03KEBO00983murni besar50,000
2817/07 07:03LOLIPOP24murni kecil25,000
2917/07 07:02TONO757murni besar50,000
3017/07 07:02DEMARCOS01murni besar50,000
3117/07 07:02ERIN111murni kecil50,000
3217/07 07:02HOKIHELMImurni kecil50,000
3317/07 07:02DUEK10murni kecil25,000
3417/07 07:00Z0DIAKLEOmurni besar50,000
3517/07 07:00LAMBEKE92murni kecil50,000
3617/07 06:59P4KU11murni besar50,000
3717/07 06:58ADI8900balak10,000
3817/07 06:58J4BILmurni besar25,000
3917/07 06:58QKANbalak100,000
4017/07 06:57AAYESHAmurni besar50,000
4117/07 06:55SUHE234murni besar50,000
4217/07 06:55ZTK09murni kecil50,000
4317/07 06:54GADIIIIIIImurni besar50,000
4417/07 06:53IBP89447murni besar25,000
4517/07 06:53EKHAGHOmurni kecil25,000
4617/07 06:52DIREKTUR03murni besar25,000
4717/07 06:51MAULANAS10murni kecil5,000
4817/07 06:51SSSSSSMMMmurni besar25,000
4917/07 06:51AADRBAAD25balak50,000
5017/07 06:51AGUSWONG77murni kecil50,000

Ceme Multi Jackpot System

Jackpot dilihat dari gabungan kartu pemain dengan kartu bandar. Bandar harus membeli jackpot sebanyak jumlah player yang sedang duduk. Sebagai contoh bila terdapat 3 pemain duduk bermain, dan bandar memutuskan untuk membeli jackpot Rp 1.000, maka pada periode tersebut bandar akan membeli jackpot sebanyak 3xRp1.000 = Rp3.000.

Jackpot bukanlah suatu keharusan untuk dibeli, namun kami memberikan suatu fitur tambahan untuk member tercinta dari www.pokerbintang.space.

Terdapat tiga pilihan harga jackpot yang bisa anda beli yaitu :100,500 dan 1000 rupiah.

Hadiah dari Multi jackpot system www.pokerbintang.space

  1. Murni Kecil x 50 harga jackpot yang anda beli.
      (contoh:anda membeli 1000 maka:1000 X 50 = 50.000)
  2. Murni Besar x 50 harga jackpot yang anda beli
      (contoh:anda membeli 1000 maka:1000 X 50 = 50.000)
  3. BALAK x 200 harga jackpot yang anda beli
      (contoh:anda membeli 1000 maka:1000 X 200 = 200.000)
  4. ENAM DEWA x 6666 harga jackpot yang anda beli
      (contoh:anda membeli 1000 maka:1000 X 6666 = 6.666.000)

Demikian adalah penjelasan dari Multi Jackpot www.pokerbintang.space terima kasih dan selamat bermain salam hoki dari kami

Ceme Jackpot Winner

TOP ENAM DEWA
No.TanggalNamaPriceWin
117/07 06:52RAYA890murni enam3,333,000
217/07 06:45MUKNI88murni enam3,333,000
317/07 06:33LAJEL99murni enam6,666,000
417/07 06:33DWTARDAMJI212murni enam6,666,000
517/07 05:52SAMPANKERmurni enam6,666,000
TOP BALAK
No.TanggalNamaPriceWin
117/07 07:15L3ZLWQ89NObalak200,000
217/07 07:13DEWI1979balak200,000
317/07 07:13MACIBAY99balak200,000
417/07 07:13PLEWWEKbalak200,000
517/07 07:13BEZO009balak200,000
LATEST JACKPOT
No.TanggalNamaPriceWin
117/07 07:16DEWI1979murni kecil50,000
217/07 07:16E5DB4025murni kecil5,000
317/07 07:15TIO_LSmurni kecil50,000
417/07 07:15MINHO06murni kecil50,000
517/07 07:15LI1WC2KEXBmurni kecil5,000
617/07 07:15OSEP675Pmurni kecil50,000
717/07 07:15YETRI20murni kecil25,000
817/07 07:15S4LIMANmurni besar5,000
917/07 07:15YAYA6666YAmurni kecil50,000
1017/07 07:15SUHANDII88murni besar50,000
1117/07 07:15A057746Dmurni besar50,000
1217/07 07:15GIOFARASSmurni besar50,000
1317/07 07:15L3ZLWQ89NObalak200,000
1417/07 07:15HU111KHMKQmurni kecil50,000
1517/07 07:15KEROP11murni kecil50,000
1617/07 07:15F4THAN_77murni kecil50,000
1717/07 07:14RICARDO777murni besar50,000
1817/07 07:14AMRICA88murni besar50,000
1917/07 07:14PINAVEGAS9murni besar50,000
2017/07 07:14PLEWWEKmurni kecil50,000
2117/07 07:14BEZO009murni kecil50,000
2217/07 07:14PLEWWEKmurni kecil50,000
2317/07 07:14PAKUONmurni kecil50,000
2417/07 07:14DIRLY96murni besar25,000
2517/07 07:14E0Q60BCMLXmurni besar5,000
2617/07 07:14TIANGLI88murni besar25,000
2717/07 07:14KH666murni kecil50,000
2817/07 07:13DEPHUBmurni besar50,000
2917/07 07:13LAHTAZAN18murni kecil50,000
3017/07 07:13R4J467murni kecil50,000
3117/07 07:13SATERR88murni kecil50,000
3217/07 07:13SUGIHKmurni besar5,000
3317/07 07:13DEWI1979balak200,000
3417/07 07:13MACIBAY99balak200,000
3517/07 07:13LAHTAZAN18murni kecil50,000
3617/07 07:13PLEWWEKbalak200,000
3717/07 07:13BEZO009balak200,000
3817/07 07:12DOMHI808murni kecil50,000
3917/07 07:12HOKI469balak200,000
4017/07 07:12CMMCV305balak200,000
4117/07 07:12ZOTD11murni besar5,000
4217/07 07:12C20S0114balak200,000
4317/07 07:12PETOK365murni kecil25,000
4417/07 07:12QQJAJA99murni besar50,000
4517/07 07:12LANCARIN99balak200,000
4617/07 07:11VERRARA77murni besar50,000
4717/07 07:11BOLENK87murni besar25,000
4817/07 07:11NCI34823balak200,000
4917/07 07:11A53OTO797murni kecil5,000
5017/07 07:119GNHISN57Cmurni kecil50,000